TimeCDT,TemperatureF,Dew PointF,Humidity,Sea Level PressureIn,VisibilityMPH,Wind Direction,Wind SpeedMPH,Gust SpeedMPH,PrecipitationIn,Events,Conditions,WindDirDegrees,DateUTC
12:15 AM,82.4,71.6,70,29.98,10.0,South,11.5,-,N/A,,Clear,180,2013-08-26 05:15:00
12:35 AM,82.4,71.6,70,29.98,10.0,South,12.7,17.3,N/A,,Clear,180,2013-08-26 05:35:00
12:55 AM,82.4,69.8,66,29.98,10.0,South,11.5,19.6,N/A,,Clear,190,2013-08-26 05:55:00
1:15 AM,82.4,69.8,66,29.98,10.0,South,12.7,19.6,N/A,,Clear,190,2013-08-26 06:15:00
1:35 AM,82.4,69.8,66,29.98,10.0,South,12.7,23.0,N/A,,Clear,180,2013-08-26 06:35:00
1:55 AM,82.4,69.8,66,29.97,10.0,South,16.1,-,N/A,,Clear,180,2013-08-26 06:55:00
2:15 AM,82.4,69.8,66,29.97,10.0,South,13.8,18.4,N/A,,Clear,190,2013-08-26 07:15:00
2:35 AM,80.6,69.8,70,29.97,10.0,SSW,15.0,23.0,N/A,,Clear,200,2013-08-26 07:35:00
2:55 AM,80.6,69.8,70,29.97,10.0,SSW,13.8,19.6,N/A,,Clear,200,2013-08-26 07:55:00
3:15 AM,80.6,68.0,65,29.97,10.0,SSW,15.0,21.9,N/A,,Clear,200,2013-08-26 08:15:00
3:35 AM,80.6,68.0,65,29.97,10.0,SSW,12.7,-,N/A,,Clear,200,2013-08-26 08:35:00
3:55 AM,80.6,68.0,65,29.97,10.0,SSW,15.0,23.0,N/A,,Clear,200,2013-08-26 08:55:00
4:15 AM,80.6,68.0,65,29.97,10.0,SSW,13.8,-,N/A,,Clear,210,2013-08-26 09:15:00
4:35 AM,80.6,66.2,61,29.97,10.0,SSW,15.0,23.0,N/A,,Clear,210,2013-08-26 09:35:00
4:55 AM,80.6,66.2,61,29.97,10.0,SSW,16.1,20.7,N/A,,Clear,200,2013-08-26 09:55:00
5:15 AM,78.8,66.2,65,29.97,10.0,SSW,18.4,25.3,N/A,,Clear,200,2013-08-26 10:15:00
5:35 AM,80.6,66.2,61,29.96,10.0,SSW,18.4,25.3,N/A,,Clear,200,2013-08-26 10:35:00
5:55 AM,78.8,66.2,65,29.96,10.0,South,17.3,25.3,N/A,,Clear,190,2013-08-26 10:55:00
6:15 AM,78.8,66.2,65,29.96,10.0,South,15.0,23.0,N/A,,Clear,190,2013-08-26 11:15:00
6:35 AM,78.8,66.2,65,29.96,10.0,South,16.1,20.7,N/A,,Clear,190,2013-08-26 11:35:00
6:55 AM,78.8,66.2,65,29.96,10.0,South,16.1,21.9,N/A,,Clear,190,2013-08-26 11:55:00
7:15 AM,78.8,66.2,65,29.97,10.0,South,8.1,19.6,N/A,,Clear,190,2013-08-26 12:15:00
7:35 AM,78.8,66.2,65,29.97,10.0,South,8.1,-,N/A,,Clear,170,2013-08-26 12:35:00
7:55 AM,78.8,66.2,65,29.96,10.0,South,9.2,-,N/A,,Clear,170,2013-08-26 12:55:00
8:15 AM,78.8,66.2,65,29.96,10.0,South,8.1,-,N/A,,Clear,190,2013-08-26 13:15:00
8:35 AM,78.8,66.2,65,29.96,10.0,SSW,9.2,19.6,N/A,,Clear,200,2013-08-26 13:35:00
8:55 AM,80.6,66.2,61,29.95,10.0,SSW,10.4,17.3,N/A,,Clear,200,2013-08-26 13:55:00
9:15 AM,80.6,68.0,65,29.95,10.0,SSW,10.4,18.4,N/A,,Clear,200,2013-08-26 14:15:00
9:35 AM,80.6,68.0,65,29.95,10.0,SSW,11.5,-,N/A,,Clear,210,2013-08-26 14:35:00
9:55 AM,82.4,69.8,66,29.95,10.0,SSW,6.9,-,N/A,,Clear,200,2013-08-26 14:55:00
10:15 AM,82.4,69.8,66,29.94,10.0,South,11.5,-,N/A,,Clear,190,2013-08-26 15:15:00
10:35 AM,84.2,69.8,62,29.95,10.0,South,6.9,-,N/A,,Clear,170,2013-08-26 15:35:00
10:55 AM,84.2,69.8,62,29.95,10.0,SSW,8.1,-,N/A,,Clear,210,2013-08-26 15:55:00
11:15 AM,86.0,69.8,58,29.95,10.0,South,8.1,-,N/A,,Clear,190,2013-08-26 16:15:00
11:35 AM,86.0,71.6,62,29.94,10.0,South,12.7,-,N/A,,Clear,170,2013-08-26 16:35:00
11:55 AM,87.8,71.6,58,29.94,10.0,South,12.7,17.3,N/A,,Clear,170,2013-08-26 16:55:00
12:15 PM,87.8,71.6,58,29.94,10.0,SSW,10.4,17.3,N/A,,Clear,200,2013-08-26 17:15:00
12:35 PM,87.8,71.6,58,29.94,10.0,South,13.8,-,N/A,,Clear,170,2013-08-26 17:35:00
12:55 PM,89.6,71.6,55,29.93,10.0,South,16.1,19.6,N/A,,Clear,170,2013-08-26 17:55:00
1:15 PM,89.6,71.6,55,29.92,10.0,SSE,15.0,20.7,N/A,,Clear,160,2013-08-26 18:15:00
1:35 PM,89.6,73.4,59,29.92,10.0,South,15.0,20.7,N/A,,Clear,170,2013-08-26 18:35:00
1:55 PM,89.6,73.4,59,29.91,10.0,South,17.3,-,N/A,,Clear,170,2013-08-26 18:55:00
2:15 PM,89.6,73.4,59,29.91,10.0,South,15.0,23.0,N/A,,Clear,170,2013-08-26 19:15:00
2:35 PM,89.6,75.2,62,29.91,10.0,SSE,13.8,-,N/A,,Clear,160,2013-08-26 19:35:00
2:55 PM,91.4,73.4,55,29.90,10.0,South,13.8,19.6,N/A,,Clear,170,2013-08-26 19:55:00
3:15 PM,91.4,73.4,55,29.90,10.0,South,15.0,21.9,N/A,,Clear,170,2013-08-26 20:15:00
3:35 PM,91.4,75.2,59,29.90,10.0,SSE,13.8,19.6,N/A,,Clear,160,2013-08-26 20:35:00
3:55 PM,91.4,75.2,59,29.89,10.0,SSE,16.1,20.7,N/A,,Clear,160,2013-08-26 20:55:00
4:15 PM,91.4,75.2,59,29.89,10.0,South,18.4,23.0,N/A,,Clear,170,2013-08-26 21:15:00
4:35 PM,91.4,75.2,59,29.89,10.0,South,15.0,21.9,N/A,,Clear,170,2013-08-26 21:35:00
4:55 PM,91.4,73.4,55,29.89,10.0,South,18.4,24.2,N/A,,Clear,180,2013-08-26 21:55:00
5:15 PM,91.4,73.4,55,29.88,10.0,South,18.4,23.0,N/A,,Clear,170,2013-08-26 22:15:00
5:35 PM,91.4,75.2,59,29.88,10.0,South,11.5,-,N/A,,Clear,170,2013-08-26 22:35:00
5:55 PM,91.4,75.2,59,29.88,10.0,South,15.0,-,N/A,,Clear,170,2013-08-26 22:55:00
6:15 PM,89.6,75.2,62,29.88,10.0,South,12.7,18.4,N/A,,Clear,170,2013-08-26 23:15:00
6:35 PM,89.6,75.2,62,29.88,10.0,South,13.8,-,N/A,,Clear,170,2013-08-26 23:35:00
6:55 PM,89.6,75.2,62,29.87,10.0,SSE,11.5,17.3,N/A,,Clear,160,2013-08-26 23:55:00
7:15 PM,87.8,75.2,66,29.86,10.0,South,10.4,16.1,N/A,,Clear,170,2013-08-27 00:15:00
7:35 PM,87.8,75.2,66,29.86,10.0,SSE,10.4,-,N/A,,Clear,160,2013-08-27 00:35:00
7:55 PM,86.0,75.2,70,29.86,10.0,SSE,8.1,-,N/A,,Clear,160,2013-08-27 00:55:00
8:15 PM,84.2,75.2,74,29.85,10.0,SSE,10.4,-,N/A,,Clear,160,2013-08-27 01:15:00
8:35 PM,-9999,-9999,N/A,29.84,10.0,SSE,9.2,-,N/A,,Clear,160,2013-08-27 01:35:00
8:55 PM,84.2,73.4,70,29.85,10.0,South,8.1,-,N/A,,Clear,180,2013-08-27 01:55:00
9:15 PM,84.2,73.4,70,29.84,10.0,South,10.4,-,N/A,,Clear,170,2013-08-27 02:15:00
9:35 PM,84.2,73.4,70,29.85,10.0,South,11.5,-,N/A,,Clear,180,2013-08-27 02:35:00
9:55 PM,84.2,71.6,66,29.85,10.0,South,9.2,-,N/A,,Clear,190,2013-08-27 02:55:00
10:15 PM,84.2,71.6,66,29.85,10.0,South,8.1,-,N/A,,Clear,190,2013-08-27 03:15:00
10:35 PM,84.2,69.8,62,29.84,10.0,South,13.8,-,N/A,,Clear,190,2013-08-27 03:35:00
10:55 PM,84.2,69.8,62,29.84,10.0,South,16.1,21.9,N/A,,Clear,190,2013-08-27 03:55:00
11:15 PM,84.2,69.8,62,29.84,10.0,South,13.8,20.7,N/A,,Clear,190,2013-08-27 04:15:00
11:35 PM,84.2,69.8,62,29.84,10.0,South,17.3,20.7,N/A,,Clear,180,2013-08-27 04:35:00
11:55 PM,84.2,68.0,58,29.84,10.0,South,13.8,20.7,N/A,,Clear,190,2013-08-27 04:55:00